909  
AXUS43 KGID 142002  
MISGRI  
 
GID CWA HOURLY WEATHER ROUNDUP  
NATIONAL WEATHER SERVICE HASTINGS NE  
300 PM CDT WED APR 14 2021  
 
NOTE: "FAIR" INDICATES FEW OR NO CLOUDS BELOW 12,000 FEET WITH NO  
SIGNIFICANT WEATHER AND/OR OBSTRUCTIONS TO VISIBILITY.  
   
..SOUTH CENTRAL NEBRASKA
 
 
 
CITY SKY/WX TMP DP RH WIND PRES REMARKS  
GRAND ISLAND PTSUNNY 48 23 37 NW16 30.27F  
KEARNEY CLOUDY 46 25 43 NW14 30.27F  
HASTINGS CLOUDY 47 26 44 N16G24 30.26F  
ORD CLOUDY 44 25 47 N12 30.27F  
YORK PTSUNNY 46 27 46 N15G23 30.26F  
AURORA PTSUNNY 48 24 39 N17 30.26F  
LEXINGTON PTSUNNY 43 25 48 N9 30.27F  
HOLDREGE PTSUNNY 43 30 59 N9G16 30.27F  
HEBRON CLOUDY 49 25 38 N15G22 30.26F  
   
..NEBRASKA PANHANDLE
 
 
 
CITY SKY/WX TMP DP RH WIND PRES REMARKS  
CHADRON CLOUDY 37 19 48 NE8 30.27F WCI 31  
ALLIANCE CLOUDY 32 27 81 CALM 30.24F  
SCOTTSBLUFF CLOUDY 33 25 72 MISG 30.25F  
SIDNEY NOT AVBL  
   
..WESTERN AND NORTH CENTRAL NEBRASKA
 
 
 
CITY SKY/WX TMP DP RH WIND PRES REMARKS  
VALENTINE NOT AVBL  
AINSWORTH PTSUNNY 41 23 48 N12G20 30.28F  
ONEILL CLOUDY 41 23 48 N15G22 30.29F  
BROKEN BOW CLOUDY 43 21 41 NW12 30.27F  
IMPERIAL MOSUNNY 44 24 45 MISG 30.22F  
NORTH PLATTE CLOUDY 45 26 47 NE8 30.26F  
MCCOOK PTSUNNY 47 24 40 NE13 30.24F  
   
..EASTERN NEBRASKA
 
 
 
CITY SKY/WX TMP DP RH WIND PRES REMARKS  
NORFOLK CLOUDY 44 23 43 NW18G29 30.26F  
SO SIOUX CITY PTSUNNY 48 27 44 N18G26 30.25F  
TEKAMAH CLOUDY 49 25 39 NW18G24 30.25F  
COLUMBUS PTSUNNY 43 26 51 NW14G22 30.28F  
ALBION PTSUNNY 42 25 50 N12G22 30.28F  
OMAHA EPPLEY PTSUNNY 47 26 44 NW18G26 30.25F  
MILLARD CLOUDY 47 27 46 NW14G22 30.26S  
LINCOLN MOSUNNY 50 26 39 NW13G24 30.27F  
NEBRASKA CITY SUNNY 49 21 32 NW16G22 30.24F  
BEATRICE MOSUNNY 50 28 42 NW16G23 30.25F  
FALLS CITY MOSUNNY 54 29 38 NW16G25 30.23F  
   
..NORTHERN KANSAS
 
 
 
CITY SKY/WX TMP DP RH WIND PRES REMARKS  
GOODLAND MOSUNNY 50 22 33 E12 30.19F  
HILL CITY MOSUNNY 54 24 31 NE14G22 30.25F  
NORTON FAIR 50 25 37 NE10G16 30.28S  
PHILLIPSBURG SUNNY 52 19 28 N10 30.26F  
OBERLIN FAIR 51 24 35 E8G21 30.27F  
SMITH CENTER MOSUNNY 52 28 40 N16 30.27F  
HAYS PTSUNNY 51 25 36 NE13 30.24F  
RUSSELL NOT AVBL  
CONCORDIA PTSUNNY 53 26 35 N14G22 30.25F  
SALINA SUNNY 57 29 34 N12 30.25S  
TOPEKA SUNNY 58 32 37 NW14G21 30.22F  
 
CLICK HERE TO GO TO PREVIOUS BULLETINS.

The Nexlab NE Page
The Nexlab KS Page Main Text Page